Location: Newark
(9.4667°S, 159.8167°E)
Time: 16:38:14
(UTC+00:00)

Vanguard 1 - Pass Details

Date: 20 November 2019
Orbit: 652 x 3831 km, 34.3° (Epoch: 07 December)

Event Time Altitude Azimuth Distance (km) Brightness Sun altitude
Rises 11:08:47 0° 266° (W) 4,562 13.9 -48.9°
Reaches altitude 10° 11:11:42 10° 256° (WSW) 3,936 13.5 -49.4°
Maximum altitude 11:21:40 35° 193° (SSW) 3,428 12.9 -51.1°
Drops below altitude 10° 11:38:14 10° 133° (SE) 6,428 14.2 -53.7°
Sets 11:44:57 0° 125° (SE) 7,775 14.7 -54.6°
